Location: STAR School
(35.3054°N, 111.2976°W)
Time: 09:56:29
(UTC-07:00)

Vanguard 1 - Pass Details

Date: 31 October 2019
Orbit: 652 x 3831 km, 34.2° (Epoch: 19 November)

Event Time Altitude Azimuth Distance (km) Brightness Sun altitude
Rises 19:22:50 0° 276° (W) 3,470 14.3 -23.2°
Reaches altitude 10° 19:24:53 10° 275° (W) 2,731 13.4 -23.6°
Maximum altitude 19:31:24 75° 191° (S) 1,440 10.8 -24.9°
Enters shadow 19:35:55 38° 115° (ESE) 2,436 11.5 -25.9°
